This is the latest recevied weather packets stored in our database for station/object K3PPP. If no packets are shown the sender has not sent any weather packets the latest 10 day(s).
| Time | Temp. | Humidity | Pressure | Rain* | Wind** | Luminosity | Snow |
|---|---|---|---|---|---|---|---|
| 1777669832 | 10.56° C | 52% | 1010.6 hPa | 0 mm | - | 76 W/m² | - |
| 1777669528 | 10.56° C | 52% | 1010.6 hPa | 0 mm | - | 111 W/m² | - |
| 1777669225 | 10.56° C | 52% | 1010.4 hPa | 0 mm | - | 71 W/m² | - |
| 1777668922 | 11.11° C | 50% | 1010.4 hPa | 0 mm | - | 67 W/m² | - |
| 1777668620 | 11.11° C | 48% | 1010.2 hPa | 0 mm | - | 95 W/m² | - |
| 1777668315 | 11.67° C | 47% | 1010.1 hPa | 0 mm | - | 89 W/m² | - |
| 1777668011 | 11.67° C | 47% | 1010.2 hPa | 0 mm | - | 121 W/m² | - |
| 1777667708 | 11.67° C | 47% | 1010.4 hPa | 0 mm | - | 136 W/m² | - |
| 1777667406 | 11.67° C | 46% | 1010.1 hPa | 0 mm | - | 56 W/m² | - |
| 1777667103 | 11.67° C | 46% | 1010.2 hPa | 0 mm | - | 86 W/m² | - |
| 1777666799 | 11.67° C | 45% | 1010.4 hPa | 0 mm | - | 106 W/m² | - |
| 1777666496 | 12.22° C | 45% | 1010.2 hPa | 0 mm | - | 120 W/m² | - |
| 1777666193 | 12.22° C | 43% | 1010.2 hPa | 0 mm | - | 103 W/m² | - |
| 1777665890 | 12.22° C | 43% | 1010.2 hPa | 0 mm | - | 86 W/m² | - |
| 1777665587 | 12.78° C | 44% | 1010.3 hPa | 0 mm | - | 108 W/m² | - |
| 1777665284 | 12.78° C | 40% | 1010.3 hPa | 0 mm | - | 144 W/m² | - |
| 1777664979 | 13.33° C | 42% | 1010 hPa | 0 mm | - | 649 W/m² | - |
| 1777664676 | 13.89° C | 43% | 1010.6 hPa | 0 mm | - | 315 W/m² | - |
| 1777664372 | 13.89° C | 41% | 1010.1 hPa | 0 mm | - | 505 W/m² | - |
| 1777664070 | 12.78° C | 41% | 1010.3 hPa | 0 mm | - | 400 W/m² | - |
| 1777663768 | 12.22° C | 41% | 1010.4 hPa | 0 mm | - | 204 W/m² | - |
| 1777663464 | 12.22° C | 41% | 1010.4 hPa | 0 mm | - | 204 W/m² | - |
| 1777663162 | 12.22° C | 37% | 1010.7 hPa | 0 mm | - | 186 W/m² | - |
| 1777662859 | 12.22° C | 39% | 1010.4 hPa | 0 mm | - | 118 W/m² | - |
| 1777662556 | 12.78° C | 40% | 1010.2 hPa | 0 mm | - | 169 W/m² | - |
* Rain latest hour (hover to see other rain measurements)
** Current wind speed in m/s (hover to see current wind gust speed)